Waarnemingen

Advertentie
Mijn weer
Falsterbo A, Zweden (2615): temperatuur & dauwpunt: 15.05.2019 00:00:00 - 21.05.2019 00:00:00 (CEST)Falsterbo A, Zweden (2615): windsnelheid & windstoten: 15.05.2019 00:00:00 - 21.05.2019 00:00:00 (CEST)Falsterbo A, Zweden (2615): windrichting: 15.05.2019 00:00:00 - 21.05.2019 00:00:00 (CEST)Falsterbo A, Zweden (2615): luchtdruk: 15.05.2019 00:00:00 - 21.05.2019 00:00:00 (CEST)Falsterbo A, Zweden (2615): zicht: 15.05.2019 00:00:00 - 21.05.2019 00:00:00 (CEST)Falsterbo A, Zweden (2615): neerslag: 15.05.2019 00:00:00 - 21.05.2019 00:00:00 (CEST)
Datum & Tijd tt [°C] td [°C] ff [km/u] ff [kn] fx [km/u] fx [kn] dd ppp [hPa] vv [km] rr [mm]
21.05.2019 00:00:00 15,0 13,5 16 9 32 18 NNO 1006,0 17 0,0
20.05.2019 23:00:00 14,9 12,9 21 12 29 16 NNO 1005,7 45 0,0
20.05.2019 22:00:00 15,1 12,2 21 11 28 15 NO 1006,1 48 0,0
20.05.2019 21:00:00 15,9 13,2 20 11 32 17 NNO 1006,0 33 0,0
20.05.2019 20:00:00 17,5 14,2 24 13 33 18 NNO 1005,9 25 0,0
20.05.2019 19:00:00 17,0 13,5 20 11 29 15 NNO 1005,9 36 0,0
20.05.2019 18:00:00 18,3 13,2 12 7 21 11 N 1005,9 41 0,0
20.05.2019 17:00:00 18,1 13,0 18 10 24 13 N 1006,0 33 0,0
20.05.2019 16:00:00 18,3 14,0 14 8 20 11 N 1006,5 19 0,0
20.05.2019 15:00:00 17,8 13,7 15 8 - - N 1007,1 20 0,0
20.05.2019 14:00:00 17,9 14,0 14 8 21 11 N 1007,5 17 0,0
20.05.2019 13:00:00 16,9 13,8 13 7 17 9 N 1007,3 16 0,0
20.05.2019 12:00:00 15,9 13,7 9 5 11 6 WNW 1007,3 - 0,0
20.05.2019 11:00:00 14,0 12,2 6 4 10 5 WNW 1007,3 7 0,0
20.05.2019 10:00:00 14,7 13,1 4 2 9 5 ZW 1007,5 9 0,0
20.05.2019 09:00:00 12,8 12,2 0 0 11 6 N 1007,1 5 0,0
20.05.2019 08:00:00 12,2 11,9 4 2 8 5 OZO 1006,8 5 0,0
20.05.2019 07:00:00 12,1 11,8 6 3 16 8 ZZO 1007,0 5 0,0
20.05.2019 06:00:00 14,4 14,2 5 3 11 6 OZO 1007,1 14 0,0
20.05.2019 05:00:00 14,3 14,1 7 4 13 7 ONO 1006,9 - 0,0
20.05.2019 04:00:00 14,3 14,0 8 4 16 8 ONO 1007,2 13 0,0
20.05.2019 03:00:00 14,4 13,9 9 5 22 12 O 1007,3 17 0,0
20.05.2019 02:00:00 14,6 14,0 17 9 23 13 O 1007,7 36 0,0
20.05.2019 01:00:00 15,0 14,4 14 7 21 11 O 1008,2 24 0,0
20.05.2019 00:00:00 15,2 14,6 6 3 14 8 O 1008,5 18 0,0
19.05.2019 23:00:00 15,3 14,7 12 7 20 11 O 1008,6 19 0,0
19.05.2019 22:00:00 15,5 14,7 9 5 15 8 O 1008,8 27 0,0
19.05.2019 21:00:00 13,1 12,3 11 6 26 14 O 1008,7 11 0,0
19.05.2019 20:00:00 16,0 14,2 20 11 29 15 O 1008,6 38 0,0
19.05.2019 19:00:00 14,5 12,9 9 5 25 13 OZO 1008,5 19 0,0
19.05.2019 18:00:00 15,1 12,6 17 9 22 12 OZO 1008,9 21 0,0
19.05.2019 17:00:00 15,4 12,7 13 7 23 12 OZO 1009,3 28 0,0
19.05.2019 16:00:00 15,6 12,7 15 8 25 13 O 1009,6 26 0,0
19.05.2019 15:00:00 15,0 11,6 13 7 20 11 OZO 1009,9 26 0,0
19.05.2019 14:00:00 15,2 12,7 14 7 23 12 OZO 1010,0 23 0,0
19.05.2019 13:00:00 16,0 12,7 13 7 18 10 OZO 1010,1 29 0,0
19.05.2019 12:00:00 14,5 12,4 13 7 19 11 OZO 1010,2 23 0,0
19.05.2019 11:00:00 14,6 12,1 13 7 19 10 OZO 1010,4 18 0,0
19.05.2019 10:00:00 15,0 12,7 11 6 23 12 OZO 1010,3 32 0,0
19.05.2019 09:00:00 14,9 13,6 14 7 24 13 O 1010,2 38 0,0
19.05.2019 08:00:00 13,5 13,3 19 10 31 17 O 1010,2 16 0,0
19.05.2019 07:00:00 12,8 12,6 24 13 31 17 O 1010,2 9 0,0
19.05.2019 06:00:00 12,9 12,7 18 10 26 14 O 1010,0 8 0,0
19.05.2019 05:00:00 12,5 12,3 14 8 35 19 O 1009,9 - 0,0
19.05.2019 04:00:00 12,4 12,2 29 15 36 19 O 1010,0 9 0,0
19.05.2019 03:00:00 12,4 12,2 19 10 24 13 ONO 1010,2 - 0,0
19.05.2019 02:00:00 12,3 12,1 15 8 28 15 O 1010,1 8 0,0
19.05.2019 01:00:00 12,7 12,5 22 12 32 17 O 1010,4 5 0,0
19.05.2019 00:00:00 12,7 12,5 24 13 33 18 O 1010,9 4,3 0,0
18.05.2019 23:00:00 12,4 11,9 17 9 24 13 O 1010,7 8 0,0
18.05.2019 22:00:00 13,1 12,6 16 9 24 13 O 1010,7 10 0,0
18.05.2019 21:00:00 12,5 11,4 9 5 24 13 O 1010,7 7 0,0
18.05.2019 20:00:00 15,1 12,6 20 11 33 18 O 1010,6 14 0,0
18.05.2019 19:00:00 13,8 12,0 18 10 34 19 O 1010,6 13 0,0
18.05.2019 18:00:00 13,5 11,6 27 15 35 19 OZO 1010,6 12 0,0
18.05.2019 17:00:00 15,8 12,0 21 11 27 14 OZO 1010,7 14 0,0
18.05.2019 16:00:00 15,8 12,4 21 11 26 14 OZO 1011,2 13 0,0
18.05.2019 15:00:00 14,7 12,2 18 10 30 16 OZO 1011,8 16 0,0
18.05.2019 14:00:00 13,8 11,8 24 13 34 18 OZO 1012,0 26 0,0
18.05.2019 13:00:00 13,5 11,0 12 7 16 9 ZO 1012,3 32 0,0
18.05.2019 12:00:00 14,2 12,6 9 5 20 11 OZO 1012,4 26 0,0
18.05.2019 11:00:00 12,7 12,5 17 9 27 14 O 1012,5 2,7 0,0
18.05.2019 10:00:00 10,7 10,5 22 12 27 15 OZO 1012,5 6 0,0
18.05.2019 09:00:00 11,8 11,6 12 6 20 11 OZO 1012,3 1,6 0,0
18.05.2019 08:00:00 10,8 10,6 17 9 24 13 O 1012,3 0,6 0,0
18.05.2019 07:00:00 10,7 10,5 18 10 25 13 O 1012,2 0,9 0,0
18.05.2019 06:00:00 10,4 10,2 16 8 19 10 OZO 1012,4 1,0 0,0
18.05.2019 05:00:00 10,2 10,0 11 6 15 8 O 1012,3 0,5 0,0
18.05.2019 04:00:00 9,8 9,7 10 6 17 9 OZO 1012,4 0,6 0,0
18.05.2019 03:00:00 9,7 9,6 12 6 18 10 OZO 1012,4 4,0 0,0
18.05.2019 02:00:00 9,8 9,7 11 6 19 10 OZO 1012,1 2,1 0,0
18.05.2019 01:00:00 9,8 9,7 16 8 30 16 O 1012,0 4,4 0,0
18.05.2019 00:00:00 9,9 9,6 22 12 32 18 O 1012,1 10 0,0
17.05.2019 23:00:00 10,0 9,7 27 14 34 18 O 1012,1 18 0,0
17.05.2019 22:00:00 9,9 9,4 29 15 38 21 O 1012,1 19 0,0
17.05.2019 21:00:00 10,1 9,5 29 16 41 22 O 1012,2 50 0,0
17.05.2019 20:00:00 10,0 9,7 32 17 45 24 O 1012,1 25 0,0
17.05.2019 19:00:00 10,0 9,7 29 16 43 23 O 1012,3 20 0,0
17.05.2019 18:00:00 10,0 9,7 30 16 42 23 O 1012,6 23 0,0
17.05.2019 17:00:00 10,2 9,7 27 15 45 24 O 1012,9 43 0,0
17.05.2019 16:00:00 10,4 10,1 31 17 42 23 O 1012,9 45 0,0
17.05.2019 15:00:00 10,4 10,1 29 15 41 22 O 1013,3 33 0,1
17.05.2019 14:00:00 10,6 10,4 31 17 42 23 O 1013,5 20 0,4
17.05.2019 13:00:00 10,6 10,4 27 15 42 23 O 1013,5 22 2,3
17.05.2019 12:00:00 10,5 10,2 22 12 36 19 O 1013,7 4,8 2,1
17.05.2019 11:00:00 10,4 9,9 21 11 - - ONO 1014,0 10 1,5
17.05.2019 10:00:00 10,2 9,7 21 11 33 18 ONO 1014,4 11 1,6
17.05.2019 09:00:00 9,9 9,3 24 13 38 21 ONO 1014,7 6 2,0
17.05.2019 08:00:00 10,3 8,6 25 13 42 23 O 1015,1 15 0,3
17.05.2019 07:00:00 10,9 8,1 21 11 35 19 ONO 1015,3 38 0,0
17.05.2019 06:00:00 10,3 7,9 24 13 44 24 ONO 1015,7 37 0,0
17.05.2019 05:00:00 10,8 7,5 29 15 44 24 O 1015,7 50 0,0
17.05.2019 04:00:00 11,5 5,8 29 16 47 25 O 1015,8 50 0,0
17.05.2019 03:00:00 11,9 4,8 30 16 53 29 O 1016,1 50 0,0
17.05.2019 02:00:00 12,5 4,0 35 19 54 29 ONO 1016,7 49 0,0
17.05.2019 01:00:00 12,7 2,8 29 16 46 25 ONO 1017,2 50 0,0
17.05.2019 00:00:00 12,7 2,5 25 13 40 21 ONO 1018,1 50 0,0
16.05.2019 23:00:00 11,9 4,1 26 14 53 29 ONO 1019,1 38 0,0
16.05.2019 22:00:00 14,1 1,0 27 14 50 27 ONO 1019,3 50 0,0
16.05.2019 21:00:00 14,8 0,6 28 15 46 25 ONO 1019,3 50 0,0
16.05.2019 20:00:00 15,4 1,9 28 15 50 27 O 1019,6 50 0,0
16.05.2019 19:00:00 16,6 0,3 35 19 60 33 O 1019,5 50 0,0
16.05.2019 18:00:00 17,3 0,0 42 23 62 34 O 1019,8 50 0,0
16.05.2019 17:00:00 18,3 0,0 41 22 59 32 ONO 1020,0 44 0,0
16.05.2019 16:00:00 19,2 2,1 38 21 61 33 O 1020,2 44 0,0
16.05.2019 15:00:00 20,0 1,9 41 22 58 31 O 1020,6 35 0,0
16.05.2019 14:00:00 20,2 2,5 41 22 58 32 O 1020,8 36 0,0
16.05.2019 13:00:00 19,8 2,2 40 21 60 33 ONO 1021,1 33 0,0
16.05.2019 12:00:00 19,1 2,0 38 21 54 29 ONO 1021,5 38 0,0
16.05.2019 11:00:00 17,4 3,7 23 12 36 19 NO 1021,9 40 0,0
16.05.2019 10:00:00 13,9 3,1 18 10 35 19 NO 1022,6 46 0,0
16.05.2019 09:00:00 11,1 1,1 24 13 35 19 NNO 1023,1 50 0,0
16.05.2019 08:00:00 8,9 0,1 23 13 33 18 NNO 1023,5 48 0,0
16.05.2019 07:00:00 8,7 -0,4 25 14 35 19 NNO 1023,5 49 0,0
16.05.2019 06:00:00 8,6 -1,0 22 12 30 16 NNO 1024,1 50 0,0
16.05.2019 05:00:00 8,3 0,3 17 9 25 13 NO 1024,8 50 0,0
16.05.2019 04:00:00 8,3 1,7 14 8 29 16 NO 1025,4 50 0,0
16.05.2019 03:00:00 8,8 5,7 18 10 26 14 NNO 1025,8 48 0,0
16.05.2019 02:00:00 9,2 5,4 15 8 20 11 N 1026,3 50 0,0
16.05.2019 01:00:00 9,7 5,5 16 9 19 10 N 1026,8 50 0,0
16.05.2019 00:00:00 9,5 4,5 14 7 16 9 NNW 1027,2 48 0,0
15.05.2019 23:00:00 7,2 4,3 6 3 8 4 NNO 1027,8 50 0,0
15.05.2019 22:00:00 7,7 2,8 7 4 15 8 O 1028,1 50 0,0
15.05.2019 21:00:00 9,2 1,8 13 7 17 9 OZO 1028,0 50 0,0
15.05.2019 20:00:00 9,7 0,6 13 7 19 11 ZO 1028,0 50 0,0
15.05.2019 19:00:00 10,5 1,1 16 8 22 12 ZO 1028,1 50 0,0
15.05.2019 18:00:00 12,3 2,2 16 9 21 11 ZZO 1028,3 50 0,0
15.05.2019 17:00:00 13,5 1,2 14 8 18 10 ZZO 1028,3 42 0,0
15.05.2019 16:00:00 12,9 1,6 14 8 23 12 Z 1028,8 42 0,0
15.05.2019 15:00:00 13,6 1,9 15 8 20 11 Z 1029,1 36 0,0
15.05.2019 14:00:00 14,1 3,0 16 8 21 11 Z 1029,4 30 0,0
15.05.2019 13:00:00 12,8 3,5 17 9 23 12 ZZO 1029,7 50 0,0
15.05.2019 12:00:00 12,9 2,4 16 9 24 13 ZZO 1030,1 40 0,0
15.05.2019 11:00:00 12,7 5,6 10 5 22 12 N 1030,2 37 0,0
15.05.2019 10:00:00 12,5 6,3 16 9 19 10 NNW 1030,0 41 0,0
15.05.2019 09:00:00 12,0 2,2 12 6 25 14 NO 1030,2 50 0,0
15.05.2019 08:00:00 11,0 5,3 19 11 28 15 NNO 1030,0 50 0,0
15.05.2019 07:00:00 9,8 6,0 21 11 27 14 N 1030,0 47 0,0
15.05.2019 06:00:00 8,9 5,1 18 10 25 14 N 1030,1 47 0,0
15.05.2019 05:00:00 8,6 3,6 20 11 28 15 N 1030,2 50 0,0
15.05.2019 04:00:00 9,4 6,1 19 10 22 12 NNW 1030,3 50 0,0
15.05.2019 03:00:00 9,2 5,4 13 7 15 8 NNW 1030,6 50 0,0
15.05.2019 02:00:00 9,5 5,3 13 7 15 8 NNW 1031,0 50 0,0
15.05.2019 01:00:00 9,6 5,6 11 6 14 7 NNW 1031,4 50 0,0
15.05.2019 00:00:00 9,7 6,0 11 6 16 9 NNW 1031,6 50 0,0

tt = temperatuur
td = dauwpunt
ff = windsnelheid
fx = windstoten
dd = windrichting
ppp = luchtdruk
vv = zicht
rr = neerslag

Weerstations in de omgeving